Location: G�ppingen
(48.7089°N, 9.6563°E)
Time: 02:18:54
(UTC+01:00)

PRISM - Visible Passes

Search period start: 25 March 2019 00:00
Search period end: 04 April 2019 01:00
Orbit: 566 x 589 km, 98.1° (Epoch: 24 March)

Date Brightness Start Highest point End Pass type
(mag) Time Alt. Az. Time Alt. Az. Time Alt. Az.
30 Mar ? 00:38:48 10° NNE 00:38:54 11° NNE 00:38:54 11° NNE visible
31 Mar ? 00:42:57 10° NNE 00:43:13 12° NNE 00:43:13 12° NNE visible
01 Apr ? 01:47:06 10° NNE 01:47:32 13° NNE 01:47:32 13° NNE visible
02 Apr ? 01:51:15 10° NNE 01:51:51 14° NNE 01:51:51 14° NNE visible
03 Apr ? 01:55:25 10° NNE 01:56:10 15° NNE 01:56:10 15° NNE visible
